星链-37150(STARLINK-37150)

导读

STARLINK-37150(NORAD编号68315)是SpaceX星链(Starlink)星座中的一颗卫星,属于星链卫星互联网项目的组网卫星,运行在近地轨道,主要为全球提供高速低延迟互联网接入服务。 星链卫星通常由猎鹰9号火箭发射,该卫星继承了星链星座的设计,配备星间激光通信链路与轨道机动系统,可降低通信延迟并规避空间碎片。目前该卫星正常在轨运行,助力星链扩展全球覆盖范围,支撑消费互联网、海事航空联网等多场景应用。

基本信息
目录编号:
68315
目录名称:
STARLINK-37150
国际标识:
2026-057X
轨道中心:
EARTH
卫星名称:
星链-37150
卫星全名:
星链-37150(STARLINK-37150)
卫星状态:
在轨 (已飞行168 天)
发射日期:
2026-03-20 UTC
国别 :
美国 (US)
星等 :
--
轨道信息
数据来源 国际轨道数据
星历时间: 2026-09-03T15:32:26+0800
22小时前
查看轨道信息
半长轴: 6843.674km
偏心率: 0.0001412
轨道倾角: 97.287°
近地点辐角 102.103°
升交点赤经 12.012°
平近点角 258.037°
近地点: 464.57km
远地点: 466.504km
周期: 93.906分钟
每日圈数: 15.334473
详细信息
固有亮度:
5
最大亮度:
2.5
卫星平台:
Starlink V1.0
覆盖范围:
全球
运营商:
太空探索技术公司
运营商所在国:
美国
制造商(研发单位):
太空探索技术公司
制造商所在国:
美国
使用方式:
暂无
卫星简介
Starlink 计划是 SpaceX 推出的全球卫星互联网项目,通过发射低轨道卫星,为全球尤其是偏远地区提供高速、低延迟的互联网服务。自 2019 年起,Starlink 已部署数千颗卫星,旨在缩小全球数字鸿沟,推动互联网普及。该项目还为军事、航空等行业提供通信支持,带来广泛经济效益。
2D轨道图
3D轨道图
轨道高度分析图
轨道倾角分析图
轨道综合分析图
查看轨道综合分析图
交会数据列表
事件ID 空间交会对象 最接近时刻(TCA) 交会距离 交会风险概率(CRP) 交会风险指数(CRI) 操作
CDM_260905-085802-054706-831522
USA 55 (20547)
2026-09-05T
08:58:51+0000
2.212 km
极远距离
2.277548E-6 低风险 0.42
CDM_260904-000506-238006-831521
OBJECT D (62380)
2026-09-04T
00:05:26+0000
2.729 km
极远距离
1.483745E-6 低风险 0.38
CDM_260905-013506-223306-831521
2026-09-05T
01:35:50+0000
2.636 km
极远距离
1.300075E-6 低风险 0.37
CDM_260903-122704-835606-831521
2026-09-03T
12:27:44+0000
2.917 km
极远距离
1.297274E-6 低风险 0.37